Weather History for KWWR - August, 2013

Change the Weather History Date:

Tuesday, August 27, 2013

  Actual Average (KGAG) Record (KGAG)
Temperature  
Mean Temperature 81 °F -  
Max Temperature 91 °F 89 °F 106 °F (2011)
Min Temperature 71 °F 65 °F 49 °F (1967)
Cooling Degree Days 16    
Growing Degree Days 31 (Base 50)    
Moisture  
Dew Point 59 °F    
Average Humidity 48    
Maximum Humidity 65    
Minimum Humidity 28    
Precipitation  
Precipitation 0.00 in - - ()
Sea Level Pressure  
Sea Level Pressure 30.11 in    
Wind  
Wind Speed 12 mph (South)    
Max Wind Speed 20 mph    
Max Gust Speed 25 mph    
Visibility 10 miles    
Events      
Averages and records for this station are not official NWS values.
T = Trace of Precipitation, MM = Missing Value Source: NWS Daily Summary

Daily Weather History Graph

Daily Weather History Graph

Search for Another Location

Airport or City:

Trip Planner

Search our weather history database for the weather conditions in past years. The results will help you decide how hot, cold, wet, or windy it might be!

Date:

Astronomy

Aug. 27, 2013 Rise Set
Actual Time 7:05 AM CDT 8:12 PM CDT
Civil Twilight 6:39 AM CDT 8:39 PM CDT
Nautical Twilight 6:07 AM CDT 9:10 PM CDT
Astronomical Twilight 5:34 AM CDT 9:43 PM CDT
Moon No Moon Rise 1:52 PM CDT (8/27)
Length of Visible Light 14h 00m
Length of Day
13h 06m
Waning Gibbous, 57% of the Moon is Illuminated
Aug 27
Waning Gibbous
Aug 28
Last Quarter
Sep 5
New
Sep 12
First Quarter
Sep 19
Full

Hourly Weather History & Observations

Time (CDT) Temp. Heat Index Dew Point Humidity Pressure Visibility Wind Dir Wind Speed Gust Speed Precip Events Conditions
12:15 AM 78.8 °F - 59.0 °F 51% 30.13 in 10.0 mi SSE 11.5 mph - N/A   Clear
12:35 AM 78.8 °F - 59.0 °F 51% 30.13 in 10.0 mi SSE 12.7 mph - N/A   Clear
12:55 AM 78.8 °F - 59.0 °F 51% 30.13 in 10.0 mi SSE 11.5 mph - N/A   Clear
1:15 AM 78.8 °F - 59.0 °F 51% 30.13 in 10.0 mi SSE 11.5 mph - N/A   Clear
1:35 AM 77.0 °F - 59.0 °F 54% 30.13 in 10.0 mi SSE 10.4 mph - N/A   Clear
1:55 AM 77.0 °F - 59.0 °F 54% 30.12 in 10.0 mi South 9.2 mph - N/A   Clear
2:15 AM 77.0 °F - 59.0 °F 54% 30.12 in 10.0 mi South 11.5 mph - N/A   Clear
2:35 AM 77.0 °F - 59.0 °F 54% 30.12 in 10.0 mi South 11.5 mph - N/A   Clear
2:55 AM 77.0 °F - 59.0 °F 54% 30.12 in 10.0 mi South 12.7 mph - N/A   Clear
3:15 AM 77.0 °F - 59.0 °F 54% 30.12 in 10.0 mi South 11.5 mph - N/A   Clear
3:35 AM 75.2 °F - 59.0 °F 57% 30.12 in 10.0 mi South 10.4 mph - N/A   Clear
3:55 AM 75.2 °F - 59.0 °F 57% 30.12 in 10.0 mi South 10.4 mph - N/A   Clear
4:15 AM 73.4 °F - 59.0 °F 61% 30.11 in 10.0 mi South 10.4 mph - N/A   Clear
4:35 AM 73.4 °F - 59.0 °F 61% 30.12 in 10.0 mi South 9.2 mph - N/A   Clear
4:55 AM 73.4 °F - 59.0 °F 61% 30.12 in 10.0 mi South 8.1 mph - N/A   Clear
5:15 AM 71.6 °F - 59.0 °F 64% 30.12 in 10.0 mi South 8.1 mph - N/A   Clear
5:35 AM 71.6 °F - 59.0 °F 64% 30.12 in 10.0 mi South 6.9 mph - N/A   Clear
5:55 AM 71.6 °F - 59.0 °F 64% 30.12 in 10.0 mi South 9.2 mph - N/A   Clear
6:15 AM 71.6 °F - 59.0 °F 64% 30.13 in 10.0 mi South 9.2 mph - N/A   Clear
6:35 AM 73.4 °F - 59.0 °F 61% 30.14 in 10.0 mi South 10.4 mph - N/A   Clear
6:55 AM 71.6 °F - 59.0 °F 64% 30.14 in 10.0 mi SSW 10.4 mph - N/A   Clear
7:15 AM 71.6 °F - 59.0 °F 64% 30.14 in 10.0 mi South 11.5 mph - N/A   Clear
7:35 AM 73.4 °F - 59.0 °F 61% 30.15 in 10.0 mi SSW 11.5 mph - N/A   Clear
7:55 AM 73.4 °F - 59.0 °F 61% 30.15 in 10.0 mi SSW 11.5 mph 18.4 mph N/A   Clear
8:15 AM 75.2 °F - 60.8 °F 61% 30.15 in 10.0 mi SSW 12.7 mph - N/A   Clear
8:35 AM 77.0 °F - 60.8 °F 57% 30.15 in 10.0 mi SSW 13.8 mph 19.6 mph N/A   Clear
8:55 AM 78.8 °F - 60.8 °F 54% 30.15 in 10.0 mi SSW 13.8 mph 21.9 mph N/A   Clear
9:15 AM 78.8 °F - 60.8 °F 54% 30.15 in 10.0 mi SSW 15.0 mph - N/A   Clear
9:35 AM 80.6 °F 81.5 °F 60.8 °F 51% 30.15 in 10.0 mi SSW 15.0 mph - N/A   Clear
9:55 AM 82.4 °F 83.4 °F 62.6 °F 51% 30.15 in 10.0 mi SSW 16.1 mph - N/A   Clear
10:15 AM 82.4 °F 83.4 °F 62.6 °F 51% 30.15 in 10.0 mi SSW 13.8 mph 21.9 mph N/A   Clear
10:35 AM 84.2 °F 85.0 °F 62.6 °F 48% 30.16 in 10.0 mi SSW 16.1 mph - N/A   Clear
10:55 AM 86.0 °F 86.6 °F 62.6 °F 45% 30.16 in 10.0 mi SSW 13.8 mph 19.6 mph N/A   Clear
11:15 AM 86.0 °F 86.1 °F 60.8 °F 43% 30.16 in 10.0 mi SSW 19.6 mph 23.0 mph N/A   Clear
11:35 AM 86.0 °F 86.1 °F 60.8 °F 43% 30.16 in 10.0 mi SSW 16.1 mph 24.2 mph N/A   Clear
11:55 AM 87.8 °F 87.6 °F 60.8 °F 40% 30.15 in 10.0 mi SSW 15.0 mph 21.9 mph N/A   Clear
12:15 PM 87.8 °F 87.6 °F 60.8 °F 40% 30.15 in 10.0 mi SSW 15.0 mph 21.9 mph N/A   Clear
12:35 PM 89.6 °F 89.5 °F 60.8 °F 38% 30.13 in 10.0 mi South 17.3 mph 20.7 mph N/A   Clear
12:55 PM 87.8 °F 87.1 °F 59.0 °F 38% 30.13 in 10.0 mi SSW 15.0 mph 20.7 mph N/A   Clear
1:15 PM 89.6 °F 88.1 °F 57.2 °F 33% 30.12 in 10.0 mi South 13.8 mph 19.6 mph N/A   Clear
1:35 PM 89.6 °F 88.9 °F 59.0 °F 36% 30.12 in 10.0 mi SSW 16.1 mph 21.9 mph N/A   Scattered Clouds
1:55 PM 89.6 °F 87.7 °F 55.4 °F 31% 30.11 in 10.0 mi SSW 9.2 mph 18.4 mph N/A   Mostly Cloudy
2:15 PM 91.4 °F 89.4 °F 55.4 °F 29% 30.11 in 10.0 mi SSW 12.7 mph 18.4 mph N/A   Scattered Clouds
2:35 PM 89.6 °F 87.7 °F 55.4 °F 31% 30.11 in 10.0 mi South 12.7 mph 21.9 mph N/A   Scattered Clouds
2:55 PM 91.4 °F 89.4 °F 55.4 °F 29% 30.10 in 10.0 mi SSE 10.4 mph - N/A   Scattered Clouds
3:15 PM 91.4 °F 89.1 °F 53.6 °F 28% 30.09 in 10.0 mi SSE 11.5 mph 19.6 mph N/A   Mostly Cloudy
3:35 PM 91.4 °F 89.1 °F 53.6 °F 28% 30.09 in 10.0 mi SSE 12.7 mph 25.3 mph N/A   Scattered Clouds
3:55 PM 91.4 °F 89.1 °F 53.6 °F 28% 30.09 in 10.0 mi South 12.7 mph 19.6 mph N/A   Scattered Clouds
4:15 PM 91.4 °F 89.4 °F 55.4 °F 29% 30.09 in 10.0 mi SSE 13.8 mph 19.6 mph N/A   Scattered Clouds
4:35 PM 91.4 °F 89.1 °F 53.6 °F 28% 30.08 in 10.0 mi South 15.0 mph - N/A   Clear
4:55 PM 89.6 °F 87.3 °F 53.6 °F 29% 30.08 in 10.0 mi South 10.4 mph - N/A   Clear
5:15 PM 89.6 °F 87.7 °F 55.4 °F 31% 30.08 in 10.0 mi South 10.4 mph 18.4 mph N/A   Scattered Clouds
5:35 PM 91.4 °F 89.4 °F 55.4 °F 29% 30.08 in 10.0 mi South 12.7 mph - N/A   Scattered Clouds
5:55 PM 91.4 °F 89.4 °F 55.4 °F 29% 30.07 in 10.0 mi SSE 15.0 mph 20.7 mph N/A   Scattered Clouds
6:15 PM 89.6 °F 87.7 °F 55.4 °F 31% 30.07 in 10.0 mi SSE 13.8 mph - N/A   Clear
6:35 PM 87.8 °F 86.1 °F 55.4 °F 33% 30.07 in 10.0 mi SSE 13.8 mph - N/A   Clear
6:55 PM 87.8 °F 86.1 °F 55.4 °F 33% 30.06 in 10.0 mi SSE 10.4 mph - N/A   Clear
7:15 PM 87.8 °F 86.5 °F 57.2 °F 35% 30.06 in 10.0 mi SE 8.1 mph - N/A   Clear
7:35 PM 86.0 °F 84.9 °F 57.2 °F 37% 30.07 in 10.0 mi SSE 8.1 mph - N/A   Clear
7:55 PM 86.0 °F 85.4 °F 59.0 °F 40% 30.07 in 10.0 mi SE 6.9 mph - N/A   Clear
8:15 PM 82.4 °F 82.0 °F 57.2 °F 42% 30.07 in 10.0 mi SE 6.9 mph - N/A   Clear
8:35 PM 80.6 °F 81.1 °F 59.0 °F 48% 30.07 in 10.0 mi SE 10.4 mph - N/A   Clear
8:55 PM 80.6 °F 81.8 °F 62.6 °F 54% 30.07 in 10.0 mi SSE 13.8 mph - N/A   Clear
9:15 PM 80.6 °F 82.3 °F 64.4 °F 58% 30.08 in 10.0 mi SSE 11.5 mph - N/A   Clear
9:35 PM 78.8 °F - 64.4 °F 61% 30.08 in 10.0 mi SSE 9.2 mph - N/A   Clear
9:55 PM 78.8 °F - 64.4 °F 61% 30.08 in 10.0 mi SSE 10.4 mph - N/A   Clear
10:15 PM 78.8 °F - 64.4 °F 61% 30.08 in 10.0 mi SSE 13.8 mph - N/A   Clear
10:35 PM 77.0 °F - 62.6 °F 61% 30.08 in 10.0 mi SSE 12.7 mph - N/A   Clear
10:55 PM 77.0 °F - 62.6 °F 61% 30.08 in 10.0 mi SSE 13.8 mph - N/A   Clear
11:15 PM 77.0 °F - 62.6 °F 61% 30.08 in 10.0 mi SSE 13.8 mph - N/A   Clear
11:35 PM 77.0 °F - 64.4 °F 65% 30.08 in 10.0 mi SSE 12.7 mph - N/A   Clear
11:55 PM 77.0 °F - 64.4 °F 65% 30.08 in 10.0 mi SSE 12.7 mph - N/A   Clear